Temp
-13 -13 -13 -12 -12 -11 -11 -11 -12 -12 -11 -11 -11 -11 -10 -11 -10 -10 -10 -10 -10 -11 -11 -10 -10 -10 -10 -10 -10 -10 -10 -10 -10 -10 -10 -10 -9 -9 -9 -10 -10 -10 -10 -10 -10 -10 -10 -10 -10
-13 -13 -13 -13 -12 -11 -11 -12 -12 -12 -12 -11 -11 -11 -11 -11 -10 -10 -10 -10 -11 -11 -11 -11 -11 -11 -10 -10 -10 -11 -10 -10 -10 -10 -10 -10 -10 -10 -10 -10 -10 -9 -10 -10 -10 -10 -9 -9 -9
-13 -13 -13 -13 -12 -12 -12 -12 -12 -12 -12 -11 -12 -12 -11 -11 -11 -11 -11 -11 -10 -11 -11 -11 -11 -11 -11 -11 -10 -11 -11 -11 -10 -10 -10 -10 -10 -10 -10 -10 -10 -10 -10 -10 -10 -10 -10 -9 -9
-14 -14 -13 -13 -12 -13 -13 -13 -13 -13 -13 -12 -12 -12 -12 -12 -11 -11 -11 -11 -11 -10 -11 -11 -11 -11 -11 -11 -11 -11 -11 -11 -11 -11 -11 -11 -10 -10 -10 -10 -10 -10 -10 -10 -10 -10 -9 -9 -10
-14 -14 -13 -13 -13 -13 -13 -13 -13 -13 -13 -12 -12 -12 -12 -12 -12 -11 -11 -11 -11 -11 -11 -12 -12 -12 -11 -11 -11 -11 -11 -11 -11 -11 -11 -11 -11 -11 -10 -10 -10 -10 -10 -10 -10 -10 -10 -10 -10
-15 -15 -14 -13 -14 -14 -14 -14 -14 -14 -13 -13 -12 -13 -12 -12 -12 -12 -11 -11 -11 -11 -12 -12 -12 -12 -11 -11 -11 -11 -11 -11 -11 -11 -11 -11 -11 -11 -11 -11 -10 -10 -10 -10 -10 -10 -10 -10 -10
-15 -15 -14 -14 -14 -14 -14 -14 -14 -14 -14 -13 -13 -13 -12 -12 -12 -12 -12 -11 -11 -12 -12 -12 -12 -11 -11 -11 -11 -11 -11 -11 -11 -11 -11 -11 -11 -11 -11 -11 -11 -11 -11 -11 -11 -11 -11 -11 -11
-16 -15 -14 -14 -14 -15 -15 -14 -15 -14 -14 -14 -13 -13 -13 -12 -13 -12 -12 -12 -12 -12 -12 -12 -11 -11 -11 -11 -11 -11 -11 -11 -11 -11 -11 -11 -12 -12 -12 -11 -11 -11 -11 -11 -11 -11 -11 -11 -11
-16 -15 -14 -15 -15 -15 -15 -15 -15 -14 -14 -14 -14 -13 -13 -13 -13 -13 -12 -12 -12 -12 -12 -11 -12 -12 -12 -11 -11 -11 -12 -11 -12 -12 -12 -12 -12 -12 -12 -12 -12 -11 -11 -11 -11 -11 -11 -11 -12
-16 -16 -16 -16 -16 -16 -16 -14 -15 -14 -14 -14 -14 -14 -14 -13 -13 -13 -13 -13 -12 -12 -12 -12 -12 -12 -12 -12 -12 -12 -12 -12 -12 -12 -12 -12 -12 -12 -12 -12 -12 -12 -12 -12 -11 -12 -12 -12 -12
-17 -16 -17 -17 -16 -16 -15 -15 -15 -14 -14 -14 -14 -14 -14 -13 -13 -13 -13 -13 -13 -12 -12 -12 -12 -12 -12 -12 -12 -12 -12 -12 -12 -12 -12 -12 -12 -12 -12 -12 -12 -12 -12 -12 -12 -12 -12 -12 -12
-17 -17 -17 -17 -17 -16 -16 -16 -15 -15 -15 -14 -14 -14 -13 -13 -13 -14 -13 -13 -13 -13 -13 -13 -12 -12 -12 -12 -12 -12 -12 -12 -12 -12 -12 -12 -12 -12 -12 -12 -12 -12 -12 -12 -12 -12 -12 -12 -12
-17 -18 -17 -17 -17 -17 -17 -16 -16 -15 -14 -15 -15 -14 -14 -13 -14 -14 -14 -13 -13 -13 -13 -13 -13 -13 -13 -13 -13 -13 -12 -12 -12 -12 -12 -12 -12 -13 -12 -12 -12 -12 -12 -12 -12 -12 -12 -12 -12
-17 -18 -17 -17 -17 -17 -17 -16 -16 -15 -16 -15 -15 -14 -14 -14 -14 -14 -14 -14 -13 -14 -13 -13 -13 -13 -13 -13 -13 -13 -12 -12 -12 -13 -12 -13 -13 -13 -13 -13 -13 -12 -12 -12 -12 -12 -12 -12 -12
-17 -17 -17 -17 -17 -17 -17 -16 -16 -17 -16 -15 -15 -15 -14 -15 -15 -14 -14 -14 -14 -14 -14 -14 -14 -13 -13 -14 -13 -13 -13 -13 -13 -13 -13 -13 -13 -13 -13 -13 -13 -12 -12 -12 -12 -12 -12 -12 -12
-18 -17 -17 -18 -18 -17 -17 -15 -17 -17 -16 -16 -16 -15 -15 -15 -15 -15 -15 -15 -15 -15 -14 -14 -14 -14 -14 -14 -14 -14 -13 -13 -13 -13 -13 -13 -13 -13 -13 -13 -13 -12 -12 -12 -12 -12 -12 -12 -12
-19 -19 -18 -18 -18 -18 -18 -16 -17 -16 -16 -16 -16 -16 -16 -16 -16 -16 -16 -16 -16 -16 -15 -15 -14 -14 -14 -14 -14 -14 -14 -14 -14 -14 -13 -13 -13 -13 -13 -13 -13 -13 -12 -12 -12 -12 -13 -13 -13
-19 -19 -19 -19 -19 -18 -17 -16 -17 -17 -16 -16 -16 -16 -16 -16 -16 -16 -16 -16 -16 -16 -16 -15 -15 -14 -14 -14 -14 -14 -14 -14 -14 -14 -14 -14 -13 -13 -13 -13 -13 -13 -13 -13 -13 -13 -13 -13 -13
-20 -20 -19 -19 -19 -18 -18 -17 -16 -17 -17 -16 -17 -17 -17 -17 -18 -16 -16 -16 -16 -16 -16 -15 -15 -15 -14 -15 -14 -14 -14 -14 -14 -14 -14 -14 -13 -13 -13 -13 -13 -13 -13 -13 -13 -13 -13 -13 -13
-19 -19 -20 -20 -20 -19 -18 -17 -17 -18 -18 -17 -17 -18 -17 -17 -17 -17 -16 -16 -15 -16 -16 -16 -16 -16 -15 -15 -15 -14 -15 -14 -14 -14 -14 -13 -13 -13 -13 -13 -13 -13 -13 -13 -13 -13 -13 -13 -13
-20 -19 -20 -20 -20 -20 -19 -18 -18 -18 -18 -18 -18 -18 -17 -17 -17 -17 -16 -16 -16 -15 -16 -16 -16 -16 -15 -15 -15 -15 -15 -14 -14 -14 -14 -13 -13 -13 -13 -13 -13 -13 -13 -13 -13 -13 -13 -14 -13
-20 -20 -20 -20 -20 -20 -20 -18 -18 -19 -18 -19 -19 -17 -17 -17 -17 -17 -17 -17 -16 -16 -16 -16 -16 -16 -15 -15 -15 -15 -15 -15 -15 -14 -14 -14 -14 -14 -14 -14 -14 -13 -13 -13 -13 -14 -14 -14 -14
-20 -20 -20 -20 -20 -19 -20 -20 -19 -19 -20 -19 -18 -18 -18 -18 -17 -17 -17 -17 -17 -16 -16 -16 -16 -16 -15 -15 -15 -15 -15 -15 -14 -14 -14 -14 -14 -14 -14 -14 -14 -13 -14 -14 -14 -14 -14 -14 -14
-21 -21 -21 -21 -20 -19 -20 -20 -19 -21 -20 -19 -19 -19 -18 -18 -18 -17 -17 -17 -16 -17 -17 -16 -16 -16 -15 -15 -15 -16 -15 -15 -15 -15 -14 -14 -14 -14 -14 -14 -13 -14 -14 -14 -14 -14 -14 -14 -14
-22 -22 -22 -21 -21 -21 -20 -20 -20 -21 -20 -20 -20 -19 -18 -18 -18 -17 -17 -17 -16 -17 -18 -17 -16 -16 -16 -15 -15 -16 -15 -15 -15 -15 -14 -14 -14 -14 -14 -14 -14 -14 -14 -14 -14 -14 -14 -14 -14
-22 -22 -22 -22 -22 -21 -21 -20 -20 -21 -21 -21 -20 -19 -19 -19 -18 -18 -18 -17 -17 -17 -18 -17 -16 -16 -16 -16 -15 -15 -15 -15 -15 -15 -15 -15 -14 -14 -14 -14 -14 -14 -14 -14 -14 -14 -15 -15 -15
-23 -23 -23 -23 -22 -22 -21 -21 -21 -21 -21 -21 -20 -20 -20 -19 -19 -18 -18 -18 -17 -17 -18 -18 -17 -16 -16 -16 -15 -15 -15 -15 -15 -15 -15 -15 -15 -14 -14 -14 -14 -14 -14 -14 -14 -14 -15 -15 -15
-24 -23 -24 -24 -23 -23 -22 -22 -23 -22 -21 -21 -21 -21 -20 -20 -20 -19 -19 -19 -18 -18 -18 -18 -17 -16 -16 -16 -16 -15 -15 -15 -16 -15 -15 -15 -15 -15 -14 -14 -14 -14 -14 -15 -15 -15 -15 -15 -15
-25 -25 -25 -25 -24 -24 -23 -23 -24 -24 -22 -22 -21 -21 -21 -20 -21 -20 -20 -19 -19 -18 -18 -18 -18 -17 -17 -16 -16 -15 -15 -15 -16 -16 -15 -15 -15 -15 -15 -15 -15 -15 -15 -15 -15 -15 -15 -15 -15
-25 -26 -26 -26 -25 -25 -24 -23 -25 -25 -24 -23 -22 -22 -21 -21 -21 -21 -20 -20 -20 -19 -19 -19 -19 -18 -18 -17 -16 -16 -16 -16 -15 -15 -16 -15 -15 -15 -15 -15 -15 -15 -15 -15 -15 -15 -15 -15 -15
Height
5772 5774 5775 5776 5780 5780 5783 5788 5788 5791 5791 5791 5795 5796 5799 5802 5801 5802 5805 5807 5811 5814 5814 5817 5818 5821 5823 5825 5826 5827 5829 5830 5831 5832 5833 5835 5836 5837 5838 5839 5841 5842 5844 5845 5846 5846 5847 5847 5848
5766 5767 5769 5770 5773 5774 5778 5780 5782 5785 5785 5788 5790 5792 5794 5797 5793 5801 5802 5803 5806 5809 5809 5812 5815 5816 5819 5821 5823 5824 5826 5827 5828 5829 5830 5831 5832 5834 5835 5836 5838 5839 5840 5842 5843 5843 5844 5845 5846
5758 5760 5761 5763 5766 5769 5771 5772 5777 5780 5779 5782 5785 5787 5788 5791 5793 5797 5799 5797 5801 5803 5805 5806 5809 5811 5814 5816 5818 5820 5821 5824 5825 5826 5827 5828 5829 5831 5832 5834 5835 5837 5838 5839 5840 5841 5841 5842 5842
5751 5752 5754 5755 5760 5764 5767 5767 5771 5773 5774 5777 5779 5781 5784 5786 5788 5791 5793 5792 5796 5799 5802 5801 5804 5806 5808 5810 5813 5814 5816 5819 5821 5822 5823 5825 5826 5828 5829 5831 5832 5833 5834 5835 5837 5838 5838 5838 5838
5743 5744 5746 5750 5754 5758 5759 5763 5764 5767 5768 5771 5773 5775 5777 5780 5782 5784 5787 5789 5791 5794 5795 5797 5799 5801 5803 5805 5807 5809 5811 5814 5816 5816 5819 5820 5821 5823 5825 5826 5828 5830 5831 5832 5833 5833 5834 5834 5834
5735 5737 5740 5744 5749 5752 5754 5756 5757 5761 5763 5766 5768 5769 5769 5774 5776 5779 5782 5783 5786 5788 5790 5792 5794 5796 5798 5800 5803 5805 5807 5809 5810 5812 5814 5816 5818 5818 5820 5822 5823 5825 5827 5828 5828 5829 5830 5830 5831
5728 5731 5735 5738 5740 5743 5745 5748 5752 5754 5757 5759 5761 5763 5763 5769 5770 5773 5776 5778 5780 5783 5785 5787 5789 5792 5794 5796 5798 5800 5801 5803 5804 5807 5808 5811 5813 5815 5816 5817 5819 5820 5822 5824 5824 5825 5826 5827 5827
5721 5722 5726 5730 5732 5737 5740 5741 5746 5746 5751 5753 5753 5757 5758 5762 5765 5768 5770 5773 5775 5777 5780 5782 5785 5787 5789 5791 5793 5794 5795 5797 5799 5801 5803 5805 5808 5810 5812 5813 5815 5816 5817 5819 5820 5821 5821 5822 5822
5712 5715 5719 5723 5726 5732 5730 5732 5738 5738 5741 5746 5747 5749 5752 5755 5760 5760 5763 5766 5769 5772 5774 5777 5779 5781 5783 5786 5787 5789 5790 5792 5793 5795 5798 5800 5802 5805 5807 5809 5811 5812 5813 5814 5815 5816 5817 5818 5818
5704 5708 5711 5715 5718 5720 5722 5724 5730 5729 5733 5737 5737 5740 5744 5746 5753 5753 5756 5760 5763 5765 5768 5771 5773 5775 5778 5779 5781 5783 5785 5787 5787 5790 5793 5795 5797 5800 5802 5804 5806 5807 5809 5810 5811 5813 5814 5815 5815
5697 5700 5702 5706 5708 5710 5713 5716 5721 5721 5724 5728 5730 5731 5735 5738 5744 5747 5749 5753 5757 5760 5763 5764 5766 5768 5771 5773 5775 5777 5780 5782 5783 5786 5788 5790 5793 5795 5798 5800 5801 5802 5804 5806 5808 5810 5811 5812 5811
5688 5691 5695 5698 5700 5703 5707 5710 5712 5715 5717 5719 5721 5722 5726 5731 5737 5739 5742 5745 5748 5754 5754 5758 5759 5760 5764 5767 5769 5772 5774 5777 5778 5781 5783 5785 5787 5790 5793 5795 5797 5798 5800 5802 5804 5807 5808 5808 5808
5679 5683 5687 5690 5693 5696 5698 5702 5704 5707 5708 5712 5714 5713 5718 5722 5725 5730 5733 5736 5740 5745 5747 5751 5753 5754 5757 5759 5762 5765 5769 5770 5772 5775 5778 5781 5783 5786 5788 5791 5792 5793 5795 5798 5801 5803 5804 5804 5804
5672 5676 5679 5682 5686 5688 5689 5694 5694 5701 5703 5704 5706 5706 5709 5711 5716 5720 5725 5728 5730 5737 5739 5742 5745 5747 5750 5752 5755 5759 5763 5766 5767 5769 5772 5776 5779 5782 5784 5786 5788 5789 5791 5794 5797 5798 5799 5799 5799
5663 5667 5670 5676 5678 5679 5680 5686 5689 5693 5694 5696 5698 5699 5700 5702 5706 5711 5715 5719 5723 5726 5731 5734 5738 5741 5744 5746 5748 5752 5756 5759 5761 5764 5767 5770 5774 5777 5779 5782 5784 5786 5788 5791 5793 5793 5794 5794 5794
5659 5661 5663 5664 5667 5670 5672 5679 5682 5684 5686 5688 5690 5692 5692 5694 5698 5702 5706 5710 5713 5718 5723 5726 5731 5734 5736 5739 5742 5745 5749 5753 5754 5759 5761 5765 5768 5772 5774 5778 5780 5782 5784 5787 5788 5788 5788 5788 5788
5653 5654 5656 5659 5660 5662 5664 5667 5675 5676 5678 5680 5683 5684 5686 5688 5691 5693 5696 5700 5704 5709 5713 5719 5723 5726 5729 5732 5736 5739 5743 5746 5749 5753 5756 5759 5763 5766 5770 5773 5776 5778 5779 5781 5782 5782 5782 5782 5782
5646 5647 5651 5652 5653 5654 5657 5658 5666 5668 5670 5672 5676 5677 5678 5680 5682 5683 5686 5690 5694 5700 5705 5710 5714 5718 5722 5725 5729 5733 5737 5740 5743 5747 5750 5754 5758 5762 5766 5769 5771 5773 5774 5775 5776 5776 5776 5776 5776
5642 5642 5642 5645 5646 5645 5650 5651 5655 5662 5662 5665 5668 5670 5671 5673 5672 5674 5677 5681 5687 5691 5697 5703 5707 5711 5716 5720 5723 5726 5730 5733 5736 5741 5745 5749 5752 5756 5760 5764 5766 5767 5768 5770 5770 5770 5770 5770 5770
5638 5637 5638 5640 5638 5638 5642 5644 5647 5653 5655 5656 5658 5660 5662 5663 5665 5667 5670 5672 5676 5683 5687 5692 5698 5703 5708 5712 5714 5717 5722 5726 5731 5736 5739 5743 5747 5751 5755 5758 5760 5761 5762 5763 5764 5764 5764 5764 5764
5633 5633 5633 5632 5633 5633 5631 5635 5639 5645 5647 5647 5647 5648 5651 5654 5657 5660 5662 5664 5667 5674 5679 5685 5689 5693 5699 5703 5706 5709 5715 5721 5726 5729 5732 5738 5742 5746 5749 5752 5753 5755 5756 5757 5758 5758 5758 5759 5758
5627 5628 5627 5627 5627 5627 5626 5622 5633 5634 5637 5633 5636 5640 5643 5647 5649 5652 5654 5657 5659 5665 5669 5676 5679 5684 5690 5693 5697 5702 5707 5712 5717 5722 5728 5731 5735 5739 5742 5745 5747 5748 5749 5751 5751 5752 5752 5753 5752
5621 5622 5620 5620 5620 5621 5623 5617 5622 5626 5627 5624 5631 5631 5633 5636 5640 5643 5645 5648 5651 5655 5660 5665 5670 5674 5680 5684 5689 5694 5699 5704 5710 5715 5720 5724 5728 5732 5735 5738 5740 5741 5743 5744 5745 5746 5747 5746 5747
5613 5614 5613 5612 5612 5613 5618 5615 5613 5614 5614 5618 5619 5620 5622 5626 5629 5633 5637 5639 5641 5645 5650 5655 5661 5667 5673 5676 5682 5686 5691 5698 5704 5708 5712 5717 5722 5725 5728 5731 5733 5735 5737 5737 5739 5740 5740 5741 5741
5605 5604 5604 5603 5604 5605 5607 5609 5608 5606 5608 5610 5609 5611 5613 5617 5620 5622 5626 5630 5632 5636 5639 5645 5650 5656 5664 5668 5674 5679 5684 5691 5696 5700 5705 5709 5714 5717 5721 5724 5726 5728 5730 5731 5733 5734 5734 5735 5736
5594 5595 5595 5593 5594 5595 5597 5600 5599 5599 5601 5602 5601 5603 5604 5606 5609 5612 5616 5620 5623 5626 5631 5635 5639 5646 5653 5659 5665 5670 5676 5683 5687 5692 5697 5701 5705 5710 5714 5716 5718 5721 5723 5724 5726 5728 5728 5729 5730
5583 5583 5583 5581 5584 5583 5588 5589 5591 5587 5590 5592 5594 5594 5595 5597 5598 5602 5606 5610 5613 5616 5621 5625 5629 5635 5643 5650 5655 5660 5667 5674 5679 5683 5688 5693 5698 5701 5705 5709 5711 5713 5716 5717 5719 5721 5722 5723 5724
5569 5571 5571 5571 5571 5572 5576 5578 5577 5575 5577 5581 5586 5586 5586 5586 5589 5592 5595 5599 5603 5606 5611 5615 5618 5625 5633 5640 5645 5651 5658 5663 5668 5674 5679 5684 5689 5693 5697 5701 5704 5706 5708 5710 5712 5713 5715 5716 5718
5557 5558 5558 5558 5560 5560 5563 5567 5567 5562 5565 5569 5573 5576 5578 5578 5579 5582 5585 5588 5592 5596 5601 5606 5609 5613 5622 5628 5635 5642 5650 5654 5660 5666 5671 5676 5680 5685 5689 5692 5695 5698 5700 5702 5704 5706 5708 5709 5711
5542 5543 5543 5543 5547 5547 5548 5553 5554 5553 5554 5557 5561 5566 5569 5568 5569 5571 5574 5577 5582 5586 5590 5594 5599 5602 5609 5617 5623 5631 5638 5644 5650 5656 5662 5667 5671 5675 5680 5683 5687 5689 5691 5694 5696 5698 5700 5702 5703
Wind_Speed
34 34 34 34 35 35 33 30 27 24 27 30 29 31 31 27 32 34 28 28 26 24 25 25 25 25 25 24 22 21 20 20 19 17 16 16 15 14 15 15 15 15 15 14 14 15 15 15 15
37 34 34 34 35 34 31 32 30 24 29 30 31 33 32 28 37 29 28 29 28 26 29 28 27 27 25 25 24 22 21 22 21 19 19 19 18 18 17 17 18 18 17 16 16 16 17 18 19
37 36 38 38 38 36 34 33 29 23 31 32 34 35 35 32 32 29 26 31 29 29 29 29 28 28 27 28 27 24 24 23 21 22 22 22 20 19 19 20 20 20 19 18 18 19 20 20 21
40 39 40 39 37 33 32 32 29 27 32 32 35 38 35 33 33 32 30 34 30 30 28 30 29 28 30 29 27 27 28 28 25 24 24 24 24 23 22 22 22 23 23 23 23 23 23 24 23
40 42 42 40 37 33 35 30 33 29 32 33 36 36 38 35 34 33 32 33 30 28 29 29 29 29 29 29 29 29 29 29 28 28 25 25 24 24 24 24 24 25 25 26 26 25 24 24 24
41 41 43 41 35 33 33 32 31 33 37 37 36 37 40 33 34 33 33 33 30 29 29 29 28 27 27 27 27 28 28 28 28 28 28 29 28 27 26 26 25 24 24 24 24 24 24 24 24
41 41 41 39 37 35 35 36 31 34 33 37 40 38 40 35 36 34 34 34 33 30 30 30 28 27 26 26 26 26 27 27 26 27 28 28 28 29 28 27 26 25 24 24 24 24 25 25 26
40 43 43 42 41 37 33 40 31 39 37 37 41 39 40 37 36 36 36 36 35 34 31 31 30 28 26 26 26 27 27 27 26 26 27 27 28 28 28 29 29 27 26 25 26 25 24 25 26
42 44 43 42 41 35 38 42 37 43 40 38 42 42 40 38 33 37 37 38 37 36 34 34 33 32 29 27 28 28 25 25 26 26 24 25 27 29 30 31 30 29 26 24 23 22 22 23 22
44 45 45 43 40 42 42 45 37 44 40 38 42 40 42 42 38 41 40 39 37 37 36 36 35 34 32 29 28 27 23 24 28 28 27 27 26 27 27 27 26 23 22 21 20 20 18 16 18
40 41 42 43 42 43 43 42 37 41 40 37 41 41 42 44 41 42 44 42 40 39 36 37 36 36 35 32 30 31 31 28 34 32 27 27 28 28 28 27 25 22 19 19 17 15 16 18 19
39 40 38 38 40 40 40 36 38 35 36 37 40 44 43 42 39 44 46 47 45 41 40 37 39 38 36 35 33 34 32 29 32 21 25 29 29 29 28 27 23 20 19 17 16 16 17 18 19
39 36 36 36 35 36 36 35 36 36 37 32 34 42 42 42 44 44 47 49 47 43 41 38 39 40 38 35 33 34 34 36 39 34 30 29 29 28 26 23 21 19 19 18 18 18 19 20 21
38 35 35 37 35 35 38 35 38 35 32 31 33 38 40 44 41 42 43 48 50 46 43 40 39 40 38 37 35 33 36 37 37 32 29 29 29 27 24 22 22 21 21 20 20 20 22 24 25
34 32 34 33 34 36 39 37 34 31 33 35 32 34 38 44 47 45 44 47 49 48 45 43 40 38 38 38 37 35 38 33 30 28 28 27 28 27 25 24 23 22 21 21 22 23 25 26 27
39 44 41 33 29 33 37 35 31 32 32 32 33 34 35 39 43 44 44 46 47 47 45 43 40 38 39 39 39 37 36 35 28 30 30 30 29 28 26 24 24 23 22 23 24 25 25 27 28
29 27 39 40 39 34 35 37 31 33 33 33 31 33 31 34 36 39 42 43 46 44 45 41 41 39 40 40 38 37 35 34 31 32 31 31 29 28 26 25 24 22 23 24 24 26 27 27 28
33 36 30 27 33 37 40 40 33 33 33 33 30 31 32 31 33 36 42 44 44 41 41 41 40 38 39 41 40 37 34 34 35 33 31 29 29 28 27 25 24 24 24 24 26 27 26 27 27
24 27 29 34 31 36 35 39 39 34 34 34 32 29 29 30 33 35 37 44 44 43 39 38 38 37 37 40 39 38 33 35 35 31 31 31 30 29 28 27 26 25 25 26 26 26 25 24 25
18 21 24 23 27 43 38 38 37 31 34 36 35 32 31 31 32 36 36 41 46 45 42 38 37 35 36 37 40 39 35 36 33 32 33 32 32 30 29 28 27 26 26 25 25 24 22 23 25
21 21 20 24 27 29 38 45 40 33 33 35 34 35 35 33 35 35 38 39 45 44 45 41 37 35 36 35 39 41 37 36 33 36 35 33 31 30 30 29 28 27 25 24 24 23 23 22 24
26 25 25 24 24 25 31 42 35 32 34 34 35 41 38 37 35 35 33 39 42 41 42 46 43 36 36 36 38 37 38 38 38 37 34 33 32 31 31 30 29 26 24 24 23 22 23 22 24
33 28 29 29 29 28 23 35 29 27 28 37 37 39 39 40 39 38 36 32 38 43 42 42 45 38 38 37 37 37 39 40 39 35 35 33 33 33 32 31 27 25 25 24 23 23 23 21 23
38 36 34 33 35 36 27 29 30 23 27 29 37 39 39 41 41 40 37 36 33 42 42 40 43 38 38 39 38 39 41 40 37 36 35 34 35 34 33 30 27 26 26 24 23 24 22 21 22
42 42 41 41 39 38 36 34 33 25 23 23 27 34 42 42 41 40 39 36 35 39 45 41 44 39 38 40 40 41 41 38 37 37 36 37 35 35 33 30 27 27 26 25 24 24 22 20 20
47 46 46 45 44 43 40 38 38 33 28 22 25 31 35 40 41 41 40 37 37 37 44 45 45 41 39 41 42 43 42 38 39 38 37 36 36 35 32 30 28 28 27 26 25 26 22 20 18
47 47 45 47 47 49 46 44 41 43 38 33 27 30 33 35 39 39 39 38 38 37 42 45 46 43 41 42 46 47 43 40 39 39 39 37 36 35 33 31 30 29 28 27 26 26 22 21 19
48 47 45 45 47 50 51 46 43 46 45 38 30 27 32 36 34 37 39 38 36 36 41 42 47 47 42 46 49 48 45 42 42 40 39 37 37 35 34 32 31 30 29 29 28 26 24 22 21
47 45 45 46 46 48 51 42 27 36 44 38 36 32 31 34 33 33 37 37 39 40 41 41 47 50 43 47 50 49 46 46 43 41 40 38 38 36 36 34 32 32 31 30 29 27 25 25 24
49 47 48 48 49 50 51 53 34 40 40 43 43 36 34 34 36 37 36 37 40 41 42 47 44 47 47 46 52 51 50 49 47 44 42 41 40 39 37 35 34 33 32 32 30 28 27 28 27
Wind_Direction
257 257 257 257 258 261 259 260 258 246 244 242 243 246 247 250 249 244 248 243 244 238 240 237 237 240 242 243 241 243 247 249 250 252 251 250 250 253 255 259 265 268 267 266 269 270 265 265 262
255 254 253 252 251 259 259 256 255 249 249 244 244 245 243 242 247 249 249 247 247 244 245 244 243 241 241 242 242 243 246 247 247 250 253 251 248 250 253 253 255 258 262 266 265 266 272 275 277
252 251 249 250 252 256 262 259 255 248 246 248 245 245 244 242 251 250 253 247 243 245 245 245 244 244 244 243 245 246 246 248 250 251 252 251 249 251 253 255 255 255 256 260 267 272 273 272 273
252 250 249 251 253 250 249 257 258 250 244 243 244 246 246 242 244 244 247 246 245 244 244 247 246 247 247 245 243 244 247 251 254 256 253 251 251 250 250 254 255 256 256 257 267 275 275 276 274
249 248 248 247 251 252 258 257 254 248 245 244 244 246 244 244 242 243 244 248 246 246 243 245 247 248 248 250 249 247 247 248 249 250 252 254 252 253 252 251 253 256 259 262 268 274 274 274 273
246 247 246 248 252 251 248 252 254 250 246 246 246 246 246 243 242 240 240 243 242 240 241 242 245 249 251 252 254 255 254 252 252 250 248 252 255 254 255 256 256 258 260 263 266 269 271 272 273
245 246 247 246 246 243 245 241 251 260 255 249 244 246 247 242 244 241 238 240 241 241 244 245 249 251 254 256 254 253 254 254 254 252 251 251 253 254 255 255 255 255 258 262 265 267 268 271 271
242 243 243 245 245 244 250 250 253 260 260 253 247 242 246 243 245 244 240 238 240 243 244 248 251 252 253 255 255 252 253 254 254 251 250 250 251 253 253 254 257 260 262 265 268 270 270 269 269
241 243 243 245 248 251 254 253 253 256 257 254 250 247 245 243 236 244 242 240 241 243 245 249 251 254 255 255 254 253 253 252 251 246 248 250 251 252 253 253 255 258 262 264 266 268 270 270 271
241 243 244 248 250 250 250 254 251 253 255 254 250 247 245 244 238 241 243 243 245 247 248 249 251 254 253 254 253 252 246 251 249 250 252 252 251 251 251 251 252 253 256 259 264 265 263 264 272
242 243 246 247 249 247 249 254 254 254 255 256 251 247 244 247 242 241 243 243 243 246 251 253 252 250 250 249 245 243 236 246 249 249 252 253 248 246 250 250 251 250 253 253 250 253 264 271 277
241 243 245 247 246 248 250 251 254 253 255 254 249 250 247 245 248 243 243 244 244 244 246 249 252 252 248 248 245 243 235 250 240 245 264 253 247 247 248 249 246 243 239 235 241 255 266 275 282
238 237 241 243 246 248 247 246 252 250 252 256 251 251 249 247 247 243 242 243 244 245 247 247 249 250 247 246 242 241 236 244 241 255 265 246 244 246 244 244 241 232 228 232 246 258 270 280 285
239 243 239 242 243 246 248 246 250 250 257 259 254 253 249 248 244 243 241 243 245 244 244 248 247 247 246 247 242 237 235 244 247 254 247 243 244 242 245 241 232 227 228 240 254 266 275 280 285
238 232 232 244 246 248 250 245 250 255 253 254 257 256 255 250 247 245 244 243 244 244 244 248 245 246 244 243 244 240 243 245 245 245 241 241 242 241 242 232 229 229 237 251 263 272 278 283 285
247 242 237 239 243 246 249 242 250 253 254 255 256 257 259 251 251 249 246 244 246 246 245 246 243 241 242 239 239 241 243 247 243 242 244 246 242 240 230 228 230 236 247 257 268 275 281 283 284
276 264 252 244 242 242 249 248 247 248 251 254 256 257 260 259 252 249 244 241 244 244 244 240 241 237 238 239 237 241 241 245 247 248 246 244 236 225 225 229 234 243 254 263 270 277 279 282 285
266 268 265 266 258 248 243 248 246 248 247 252 254 256 258 261 253 247 243 241 238 238 240 237 240 239 238 235 236 242 243 242 243 243 242 230 222 221 226 234 242 250 258 266 272 278 283 284 287
275 272 273 263 259 262 256 251 252 250 251 252 255 256 255 259 258 250 246 242 241 237 239 242 242 243 239 242 239 241 241 239 237 237 230 223 223 225 231 238 245 253 261 268 276 280 282 285 291
305 293 277 270 265 258 259 258 259 256 252 254 258 256 252 249 252 257 250 245 242 238 233 236 239 240 243 241 243 241 236 235 235 229 224 225 226 229 234 240 247 255 263 272 276 280 282 286 289
296 299 296 286 272 268 265 257 258 257 253 254 257 255 251 248 249 256 252 251 247 240 236 231 234 236 239 237 239 242 237 237 227 222 224 226 229 233 237 242 250 257 266 271 277 278 281 284 290
281 285 287 287 285 278 272 268 257 261 254 251 249 251 254 253 251 251 254 253 253 245 238 234 233 230 237 233 233 233 229 226 219 221 226 229 232 235 239 245 251 258 265 269 273 274 276 282 290
279 277 277 280 281 281 283 286 273 264 255 253 249 249 251 253 252 252 253 255 250 246 241 239 233 227 235 230 229 226 221 217 217 221 228 231 234 237 240 246 252 258 262 266 268 269 272 282 289
275 275 273 272 273 273 277 281 291 280 267 257 249 251 252 251 252 253 255 253 252 241 240 242 234 228 236 230 226 220 216 215 218 224 227 232 235 238 243 247 252 257 261 264 264 267 272 281 287
271 274 274 271 267 269 272 272 275 280 280 267 257 249 250 250 252 253 252 251 254 242 239 239 232 223 234 230 224 218 216 216 220 226 228 232 235 239 241 246 251 256 260 261 264 267 270 278 279
268 266 269 272 269 267 266 265 270 272 274 271 256 248 248 246 248 250 251 250 250 247 237 238 234 222 229 226 219 219 218 218 223 227 229 232 235 237 241 246 250 255 257 259 262 265 269 272 268
271 268 265 265 264 264 262 265 265 270 268 264 266 252 248 248 244 245 248 247 244 244 237 236 238 219 228 222 220 220 220 221 225 228 230 232 235 237 241 247 250 253 256 257 260 264 265 265 260
273 271 268 265 263 262 261 263 269 264 263 263 259 254 254 250 244 243 242 245 244 244 235 234 240 220 228 224 221 222 221 223 226 229 231 232 235 238 241 246 249 252 254 256 259 263 263 259 256
271 269 266 264 261 262 260 255 251 264 260 258 254 249 251 254 246 240 239 241 238 240 236 232 238 227 225 226 223 223 224 226 228 230 231 232 235 238 241 245 248 251 253 255 258 260 260 256 252
270 267 266 263 260 256 255 250 246 250 250 261 254 251 252 253 251 246 238 237 236 238 239 238 235 239 224 228 223 223 224 227 230 231 232 232 235 238 240 244 246 250 251 255 256 257 257 256 252